Regional Weather Roundup
Issued by NWS Green Bay, WI

Home | Current Version | Previous Version | Text Only | Print | Product List | Glossary On
Versions: 1 2 3 4 5 6 7 8 9 10 11 12 13 14 15 16 17 18 19 20 21 22 23 24 25 26 27 28 29 30 31 32 33 34 35 36 37 38 39 40 41 42 43 44 45 46 47 48 49 50
000
ASUS43 KGRB 062310
RWRGRB

NORTH-CENTRAL AND NORTHEAST WISCONSIN REGIONAL WEATHER ROUNDUP
NATIONAL WEATHER SERVICE GREEN BAY WI
600 PM CDT WED MAY 06 2015

WIZ005-009-010>012-018-019-070000-
NORTH CENTRAL WISCONSIN

CITY           SKY/WX    TMP DP  RH WIND       PRES   REMARKS
IRONWOOD       CLOUDY    72  57  60 S12       29.97F
MANITOWISH WTR PTSUNNY   69  58  69 SE12      30.04S
ARBOR VITAE    PTSUNNY   69  59  69 S10       30.05S
EAGLE RIVER    PTSUNNY   69  52  53 SE6       30.05F
LAND O LAKES   PTSUNNY   72  53  52 S9        30.06F
RHINELANDER    PTSUNNY   69  56  62 SE10      30.07F
PHILLIPS       PTSUNNY   68  58  71 SE9       30.03S
ANTIGO         MOSUNNY   67  58  72 SE10      30.08S
TOMAHAWK       PTSUNNY   67  58  73 CALM      30.05F
MERRILL        PTSUNNY   69  59  69 SE8       30.05F
$$

WIZ013-073-070000-
NORTHEAST WISCONSIN

CITY           SKY/WX    TMP DP  RH WIND       PRES   REMARKS
IRON MOUNTAIN  MOSUNNY   68  49  50 E13       30.07F
MARINETTE      MOSUNNY   59  46  63 E7        30.12S
OCONTO         CLOUDY    60  51  73 E8        30.11S
$$

WIZ017-030-035>037-045-070000-
CENTRAL WISCONSIN

CITY           SKY/WX    TMP DP  RH WIND       PRES   REMARKS
MEDFORD        PTSUNNY   71  58  64 SE6G16    30.02F
WAUSAU         MOSUNNY   73  57  57 SE13      30.03F
MOSINEE        SUNNY     72  57  60 SE12G17   30.06S
MARSHFIELD     PTSUNNY   74  58  57 SE13      30.02S
WISC RAPIDS    PTSUNNY   74  57  55 SE13G20   30.04S
STEVENS POINT  MOSUNNY   69  57  65 SE10      30.06S
WAUPACA        MOSUNNY   73  58  59 SE13      30.08S
SHAWANO        MOSUNNY   70  57  63 SE12      30.09S
CLINTONVILLE   MOSUNNY   68  55  64 SE9       30.07F
$$

WIZ038-039-048-051-070000-
FOX VALLEY

CITY           SKY/WX    TMP DP  RH WIND       PRES   REMARKS
NWS GREEN BAY  MOSUNNY   69  57  65 SE9       30.09F
APPLETON       MOSUNNY   66  55  68 SE10      30.09F
OSHKOSH        SUNNY     67  58  72 E7        30.07F
FOND DU LAC    MOSUNNY   71  58  63 SE15      30.07F
$$

WIZ022-050-052-070000-
EAST CENTRAL WISCONSIN

CITY           SKY/WX    TMP DP  RH WIND       PRES   REMARKS
STURGEON BAY   MOSUNNY   55  48  76 SE10      30.14F
MANITOWOC        N/A    N/A N/A N/A MISG        N/A
SHEBOYGAN      SUNNY     61  54  77 SE10      30.11F
$$

LMZ563-521-522-541>543-070000-
LAKESHORE

STATION/POSITION TIME  TEMP    WIND        PRES    VSBY  WAVE
                       AIR SEA DIR/SP/G                  HT/PER
                 (UTC) (F)     (DEG/KT/KT) (MB)    (MI)  (FT/S)
SHEBOYGAN LKSHOR 2300   44      80/  6/  7 1020.6F
KEWAUNEE LKSHORE 2300   45      70/  1/  4 1019.5S
NORTHPORT PIER   2300   47     130/  4/  5 1020.3F
SISTER BAY LKSHO 2200   62      80/ 10/ 12   N/A
CHAMBERS ISLAND  2300   53      60/  4/  6 1020.0F
MENOMINEE LKSHOR 2300   54      40/  5/  7 1020.4R
$$



USA.gov is the U.S. government's official web portal to all federal, state and local government web resources and services.